This is the latest recevied weather packets stored in our database for station/object KE5QKR. If no packets are shown the sender has not sent any weather packets the latest 10 day(s).
| Time | Temp. | Humidity | Pressure | Rain* | Wind** | Luminosity | Snow |
|---|---|---|---|---|---|---|---|
| 1777769052 | 18.33° C | 53% | 1015.4 hPa | 0 mm | - | 1 W/m² | - |
| 1777768749 | 18.89° C | 52% | 1015.2 hPa | 0 mm | - | 2 W/m² | - |
| 1777768446 | 18.89° C | 51% | 1015 hPa | 0 mm | - | 4 W/m² | - |
| 1777768143 | 18.89° C | 51% | 1015 hPa | 0 mm | - | 6 W/m² | - |
| 1777767840 | 19.44° C | 49% | 1015 hPa | 0 mm | - | 8 W/m² | - |
| 1777767536 | 18.89° C | 51% | 1014.9 hPa | 0 mm | - | 11 W/m² | - |
| 1777767233 | 19.44° C | 51% | 1014.5 hPa | 0 mm | - | 14 W/m² | - |
| 1777766931 | 20° C | 50% | 1014.6 hPa | 0 mm | - | 16 W/m² | - |
| 1777766628 | 20° C | 49% | 1014.5 hPa | 0 mm | - | 18 W/m² | - |
| 1777766325 | 20° C | 48% | 1014.5 hPa | 0 mm | - | 21 W/m² | - |
| 1777766022 | 20° C | 49% | 1014.5 hPa | 0 mm | - | 23 W/m² | - |
| 1777765718 | 20° C | 48% | 1014.6 hPa | 0 mm | - | 24 W/m² | - |
| 1777765415 | 20.56° C | 45% | 1014.4 hPa | 0 mm | - | 26 W/m² | - |
| 1777765112 | 20.56° C | 45% | 1014.3 hPa | 0 mm | - | 28 W/m² | - |
| 1777764808 | 20.56° C | 44% | 1014.2 hPa | 0 mm | - | 31 W/m² | - |
| 1777764505 | 20.56° C | 44% | 1014.2 hPa | 0 mm | - | 30 W/m² | - |
| 1777764201 | 20.56° C | 44% | 1014.1 hPa | 0 mm | - | 32 W/m² | - |
| 1777763898 | 21.11° C | 47% | 1014.2 hPa | 0 mm | - | 32 W/m² | - |
| 1777763596 | 21.11° C | 44% | 1014.2 hPa | 0 mm | - | 34 W/m² | - |
| 1777763294 | 21.11° C | 42% | 1014.1 hPa | 0 mm | - | 35 W/m² | - |
| 1777762992 | 21.11° C | 45% | 1013.9 hPa | 0 mm | - | 41 W/m² | - |
| 1777762688 | 21.11° C | 43% | 1013.8 hPa | 0 mm | - | 40 W/m² | - |
| 1777762385 | 21.11° C | 41% | 1014 hPa | 0 mm | - | 38 W/m² | - |
| 1777762082 | 21.11° C | 41% | 1014 hPa | 0 mm | - | 67 W/m² | - |
| 1777761778 | 21.11° C | 40% | 1014 hPa | 0 mm | - | 174 W/m² | - |
* Rain latest hour (hover to see other rain measurements)
** Current wind speed in m/s (hover to see current wind gust speed)